[[{"header":{"parameterUnit":"m.s-1","parameterCategory":1,"la1":30.2991,"la2":30.254,"lo1":-89.0895,"lo2":-89.0444,"dy":0.0017,"dx":0.0017,"nx":28,"ny":28,"refTime":"2024-04-21T21:00:00:Z","depth":0,"parameterNumber":2,"parameterNumberName":"U-component_of_WINDS"},"data":[0,0,0,0,0,0,0,0,0,0,0,0,0,0,0,0,0,0,0,0,0,0,0,0,0,0,0,0,0,0,0,0,0,0,0,0,0,0,0,0,0,0,0,0,0,0,0,0,0,0,0,0,0,0,0,0,0,0,-0.6462,-0.6463,0,-0.6483,-0.6483,-0.6483,-0.6479,-0.6479,-0.6478,-0.6478,-0.6498,-0.6499,-0.65,0,0,0,0,0,0,0,0,0,0,0,0,0,-0.6418,-0.6419,-0.6462,-0.6463,-0.6463,-0.6483,-0.6483,-0.6483,-0.6479,-0.6479,-0.6478,-0.6478,-0.6498,-0.6499,-0.65,0,0,0,0,0,0,0,0,0,0,0,0,0,-0.6438,-0.6419,-0.6462,-0.6463,-0.6463,-0.6483,-0.6483,-0.6483,-0.6479,-0.6479,-0.6478,-0.6477,-0.6498,-0.6499,-0.65,-0.652,0,0,-0.6504,-0.6505,0,0,0,0,0,0,0,0,-0.6437,-0.6439,-0.6463,-0.6463,-0.6463,-0.6478,-0.6475,-0.6496,-0.6479,-0.6473,-0.6478,-0.6477,-0.6492,-0.6494,-0.6499,-0.6521,-0.6522,-0.6504,-0.6505,-0.6506,-0.6506,0,0,0,0,0,0,0,-0.6435,-0.6438,-0.647,-0.6463,-0.6463,-0.6462,-0.6464,-0.6479,-0.6485,-0.6474,-0.6473,-0.6476,-0.6492,-0.6497,-0.6499,-0.6522,-0.6504,-0.6506,-0.6506,-0.6507,-0.6561,-0.6561,0,0,0,0,0,0,-0.6434,-0.6437,-0.647,-0.6471,-0.6448,-0.6463,-0.6466,-0.6474,-0.6485,-0.6486,-0.6476,-0.6476,-0.6495,-0.6498,-0.65,-0.6523,-0.6506,-0.6507,-0.6508,-0.656,-0.6561,-0.6562,0,0,0,0,0,0,-0.6433,-0.6437,-0.6469,-0.6454,-0.6458,-0.6465,-0.6474,-0.6474,-0.648,-0.6487,-0.6488,-0.6481,-0.6495,-0.6498,-0.6515,-0.6524,-0.6508,-0.6509,-0.6559,-0.656,-0.6561,-0.6571,0,0,0,0,0,0,-0.6431,-0.6436,-0.6444,-0.6454,-0.6459,-0.6484,-0.6474,-0.6475,-0.6482,-0.6482,-0.6492,-0.6493,-0.6495,-0.6513,-0.6516,-0.6525,-0.651,-0.6559,-0.656,-0.6561,-0.6569,-0.6572,-0.6574,0,0,0,0,0,-0.643,-0.6446,-0.6445,-0.6449,-0.6469,-0.6485,-0.6487,-0.6489,-0.6483,-0.6491,-0.6495,-0.6493,-0.6522,-0.6515,-0.6518,-0.6528,-0.6558,-0.6559,-0.6561,-0.6569,-0.6571,-0.6574,0,0,0,0,0,0,-0.6437,-0.6447,-0.6446,-0.6466,-0.6474,-0.6484,-0.6494,-0.6492,-0.6502,-0.6501,-0.6503,-0.6505,-0.6522,-0.6527,-0.6518,-0.6547,-0.6539,-0.6541,-0.6544,-0.6547,-0.6549,-0.6547,-0.6511,0,0,0,0,0,-0.6441,-0.6453,-0.6461,-0.6478,-0.6482,-0.6487,-0.6494,-0.6495,-0.6504,-0.6507,-0.6513,-0.6521,-0.6532,-0.654,-0.655,-0.657,-0.6572,-0.6579,-0.6581,-0.6582,-0.6584,-0.6594,-0.6597,-0.6566,-0.6566,-0.6566,0,0,-0.6449,-0.6456,-0.6463,-0.648,-0.6486,-0.6498,-0.649,-0.6504,-0.6512,-0.6509,-0.6525,-0.653,-0.6539,-0.6557,-0.6566,-0.6562,-0.6593,-0.6584,-0.6585,-0.6586,-0.6596,-0.6599,-0.6601,-0.6567,-0.6567,-0.6567,0,0,-0.6469,-0.6476,-0.6491,-0.6498,-0.6508,-0.6511,-0.6514,-0.6524,-0.6527,-0.6543,-0.6541,-0.6551,-0.657,-0.6577,-0.6583,-0.6605,-0.6603,-0.6609,-0.6619,-0.6629,-0.6632,-0.6634,-0.6641,-0.6644,-0.661,-0.661,-0.661,0,-0.6478,-0.6496,-0.6498,-0.6512,-0.6519,-0.6516,-0.653,-0.6537,-0.655,-0.6554,-0.655,-0.6574,-0.658,-0.6599,-0.6605,-0.661,-0.6613,-0.6607,-0.6631,-0.6633,-0.6635,-0.6643,-0.6645,-0.6611,-0.6611,-0.6611,-0.6611,0,-0.6506,-0.6519,-0.6529,-0.6542,-0.655,-0.6564,-0.6567,-0.6575,-0.6575,-0.6578,-0.6595,-0.6602,-0.6614,-0.6618,-0.6619,-0.6638,-0.6635,-0.6631,-0.6622,-0.6639,-0.6646,-0.6648,-0.6612,-0.6612,-0.6612,-0.6611,0,0,-0.6532,-0.6546,-0.6549,-0.6555,-0.6565,-0.6575,-0.6588,-0.66,-0.6606,-0.6615,-0.6626,-0.6642,-0.6638,-0.6645,-0.6646,-0.6654,-0.6671,-0.6649,-0.6649,-0.6652,-0.6692,-0.6694,-0.6698,-0.6669,-0.667,-0.667,-0.6691,0,-0.6554,-0.6578,-0.6579,-0.6601,-0.6612,-0.661,-0.6621,-0.6629,-0.6632,-0.6642,-0.6645,-0.6656,-0.6651,-0.6655,-0.6663,-0.6667,-0.6679,-0.6666,-0.6679,-0.6679,-0.6676,-0.6701,-0.6704,-0.6723,-0.6693,-0.6694,-0.6694,0,-0.6582,-0.6592,-0.6614,-0.6623,-0.6627,-0.6638,-0.6648,-0.6658,-0.6666,-0.6668,-0.6675,-0.6674,-0.6687,-0.6679,-0.6696,-0.6687,-0.6693,-0.6696,-0.6696,-0.6697,-0.6688,-0.6703,-0.673,-0.6732,-0.6698,-0.6698,-0.6698,0,-0.6598,-0.6617,-0.6632,-0.6637,-0.6648,-0.6655,-0.666,-0.6667,-0.6674,-0.6683,-0.6687,-0.6698,-0.6703,-0.6711,-0.6713,-0.6706,-0.673,-0.6722,-0.6732,-0.6732,-0.6737,-0.6736,-0.6764,-0.6741,-0.6741,-0.6741,-0.6741,0,-0.6622,-0.6635,-0.664,-0.6649,-0.6664,-0.6666,-0.6681,-0.6685,-0.6692,-0.6702,-0.67,-0.6709,-0.6711,-0.6721,-0.6722,-0.6736,-0.6739,-0.6741,-0.6741,-0.6741,-0.674,-0.6744,-0.6743,-0.6741,-0.6741,-0.6741,-0.6741,0,-0.6642,-0.6646,-0.6663,-0.6671,-0.6673,-0.6684,-0.6691,-0.67,-0.6703,-0.6716,-0.6719,-0.6723,-0.6734,-0.6737,-0.675,-0.6751,-0.6767,-0.6767,-0.6765,-0.6765,-0.6774,-0.6773,-0.6805,-0.6809,-0.6783,-0.6784,-0.6784,0,-0.6657,-0.6668,-0.6677,-0.6684,-0.6689,-0.6699,-0.6706,-0.6708,-0.6715,-0.6725,-0.6732,-0.6743,-0.6752,-0.677,-0.6774,-0.6784,-0.6783,-0.6793,-0.6784,-0.6783,-0.6782,-0.6782,-0.6782,-0.6795,-0.6795,-0.6796,-0.6796,0,-0.6683,-0.6684,-0.6694,-0.6704,-0.6712,-0.672,-0.6728,-0.6734,-0.6736,-0.6744,-0.6756,-0.6763,-0.6776,-0.6786,-0.6796,-0.68,-0.6798,-0.6799,-0.6801,-0.6801,-0.6799,-0.68,-0.6769,-0.6798,-0.6798,-0.6798,-0.6797,-0.6797,-0.67,-0.6709,-0.6717,-0.6728,-0.6734,-0.6741,-0.675,-0.6754,-0.6764,-0.6775,-0.6775,-0.6787,-0.6794,-0.6807,-0.6812,-0.6821,-0.6818,-0.6822,-0.6823,-0.6824,-0.6825,-0.6798,-0.6823,-0.6823,-0.6823,-0.6823,-0.6823,0,-0.6725,-0.673,-0.674,-0.6751,-0.676,-0.6757,-0.6766,-0.6773,-0.6784,-0.6791,-0.6799,-0.6812,-0.6822,-0.6827,-0.6837,-0.6843,-0.6842,-0.6846,-0.6845,-0.6846,-0.6827,-0.6824,-0.6846,-0.6846,-0.6846,-0.6846,-0.6846,-0.6846,-0.6739,-0.6754,-0.6756,-0.6774,-0.6778,-0.679,-0.6795,-0.6802,-0.6807,-0.6821,-0.683,-0.6833,-0.6839,-0.6849,-0.6858,-0.6859,-0.6863,-0.6866,-0.6867,-0.685,-0.6847,-0.6845,-0.6842,-0.6867,-0.6867,-0.6885,-0.6885,-0.6885]},{"header":{"parameterUnit":"m.s-1","parameterCategory":1,"la1":30.2991,"la2":30.254,"lo1":-89.0895,"lo2":-89.0444,"dy":0.0017,"dx":0.0017,"nx":28,"ny":28,"refTime":"2024-04-21T21:00:00:Z","depth":0,"parameterNumber":3,"parameterNumberName":"V-component_of_WINDS"},"data":[0,0,0,0,0,0,0,0,0,0,0,0,0,0,0,0,0,0,0,0,0,0,0,0,0,0,0,0,0,0,0,0,0,0,0,0,0,0,0,0,0,0,0,0,0,0,0,0,0,0,0,0,0,0,0,0,0,0,-3.28,-3.2801,0,-3.2877,-3.2878,-3.2879,-3.2881,-3.288,-3.2879,-3.2878,-3.2953,-3.2955,-3.2958,0,0,0,0,0,0,0,0,0,0,0,0,0,-3.265,-3.2653,-3.28,-3.2801,-3.2802,-3.2877,-3.2878,-3.2879,-3.2881,-3.288,-3.2878,-3.2877,-3.2952,-3.2955,-3.2959,0,0,0,0,0,0,0,0,0,0,0,0,0,-3.272,-3.2654,-3.28,-3.2812,-3.2814,-3.2877,-3.2878,-3.2879,-3.2881,-3.288,-3.2878,-3.2877,-3.2951,-3.2955,-3.2959,-3.3014,0,0,-3.2972,-3.2974,0,0,0,0,0,0,0,0,-3.2716,-3.2725,-3.2809,-3.2811,-3.2813,-3.2868,-3.2853,-3.2924,-3.2881,-3.2855,-3.2878,-3.2876,-3.2925,-3.2932,-3.2949,-3.3017,-3.3021,-3.2973,-3.2975,-3.2977,-3.2978,0,0,0,0,0,0,0,-3.2711,-3.2722,-3.283,-3.281,-3.2813,-3.2812,-3.282,-3.2866,-3.2897,-3.2857,-3.2858,-3.2867,-3.2926,-3.2945,-3.2951,-3.3022,-3.2972,-3.2976,-3.2979,-3.2981,-3.3139,-3.314,0,0,0,0,0,0,-3.2704,-3.2718,-3.2828,-3.2833,-3.276,-3.2816,-3.2825,-3.2852,-3.2897,-3.2902,-3.2868,-3.2867,-3.2938,-3.2946,-3.2953,-3.302,-3.2977,-3.2981,-3.2983,-3.3137,-3.3139,-3.3141,0,0,0,0,0,0,-3.2701,-3.2714,-3.2825,-3.2775,-3.279,-3.282,-3.285,-3.2854,-3.2873,-3.2905,-3.291,-3.2882,-3.2937,-3.2947,-3.2999,-3.3023,-3.2983,-3.2987,-3.3135,-3.3138,-3.314,-3.3155,0,0,0,0,0,0,-3.2697,-3.2713,-3.2735,-3.2776,-3.2792,-3.287,-3.2851,-3.2856,-3.2881,-3.288,-3.2919,-3.2924,-3.2937,-3.2993,-3.3003,-3.3028,-3.299,-3.3133,-3.3136,-3.3139,-3.3152,-3.3157,-3.3162,0,0,0,0,0,-3.2691,-3.2735,-3.2736,-3.2749,-3.2821,-3.2872,-3.2881,-3.2896,-3.2883,-3.2904,-3.2925,-3.2923,-3.3019,-3.2998,-3.301,-3.3036,-3.3132,-3.3135,-3.3139,-3.315,-3.3156,-3.3162,0,0,0,0,0,0,-3.2694,-3.2741,-3.2742,-3.2801,-3.2832,-3.2872,-3.29,-3.2902,-3.2937,-3.2934,-3.295,-3.2959,-3.301,-3.3029,-3.3005,-3.3092,-3.3074,-3.308,-3.3078,-3.3084,-3.3089,-3.3083,-3.2994,0,0,0,0,0,-3.2702,-3.2741,-3.2779,-3.2827,-3.2843,-3.2869,-3.2891,-3.2901,-3.2933,-3.2946,-3.2971,-3.3002,-3.3039,-3.3063,-3.3098,-3.3155,-3.3163,-3.3179,-3.3184,-3.3188,-3.3193,-3.3224,-3.3231,-3.3153,-3.3153,-3.3153,0,0,-3.2718,-3.2748,-3.2771,-3.2828,-3.2854,-3.2893,-3.288,-3.2921,-3.295,-3.2952,-3.3003,-3.3022,-3.3057,-3.3112,-3.3137,-3.3129,-3.3216,-3.3193,-3.3195,-3.3198,-3.3228,-3.3235,-3.3242,-3.3155,-3.3155,-3.3154,0,0,-3.2766,-3.2793,-3.2836,-3.2863,-3.2902,-3.2919,-3.293,-3.2969,-3.2982,-3.3034,-3.3036,-3.307,-3.3134,-3.3159,-3.318,-3.3239,-3.3238,-3.325,-3.3274,-3.3305,-3.3311,-3.3316,-3.3336,-3.3343,-3.3255,-3.3255,-3.3255,0,-3.278,-3.284,-3.2857,-3.29,-3.2924,-3.293,-3.2973,-3.2997,-3.3046,-3.3062,-3.3052,-3.3133,-3.3157,-3.3217,-3.3232,-3.3249,-3.326,-3.3245,-3.3309,-3.3314,-3.332,-3.3339,-3.3347,-3.3256,-3.3256,-3.3256,-3.3256,0,-3.2855,-3.2896,-3.2926,-3.2974,-3.3002,-3.3045,-3.3067,-3.3094,-3.3101,-3.3118,-3.317,-3.32,-3.3242,-3.3257,-3.3264,-3.3318,-3.3312,-3.3306,-3.3287,-3.3328,-3.3346,-3.3354,-3.3258,-3.3258,-3.3257,-3.3257,0,0,-3.2905,-3.2964,-3.2975,-3.2997,-3.3042,-3.3073,-3.3115,-3.3158,-3.318,-3.3213,-3.3248,-3.3303,-3.3297,-3.3321,-3.3331,-3.3357,-3.3401,-3.3348,-3.3349,-3.3356,-3.3463,-3.3466,-3.3475,-3.3402,-3.3403,-3.3405,-3.3459,0,-3.2958,-3.3034,-3.3052,-3.3117,-3.3155,-3.3162,-3.3198,-3.3229,-3.3247,-3.3281,-3.33,-3.3338,-3.3329,-3.3343,-3.337,-3.339,-3.3423,-3.3387,-3.3433,-3.3434,-3.3423,-3.3485,-3.3489,-3.3539,-3.3467,-3.3468,-3.3469,0,-3.3028,-3.3066,-3.3135,-3.3175,-3.3192,-3.3224,-3.3265,-3.3298,-3.3332,-3.3344,-3.3371,-3.3378,-3.3421,-3.3402,-3.3461,-3.3436,-3.3456,-3.3469,-3.3472,-3.3475,-3.3453,-3.3489,-3.3555,-3.3562,-3.3481,-3.348,-3.3479,0,-3.3057,-3.3124,-3.3175,-3.3193,-3.3242,-3.3264,-3.3285,-3.3319,-3.3344,-3.3379,-3.3395,-3.3434,-3.3455,-3.3485,-3.3502,-3.3487,-3.3559,-3.3542,-3.3568,-3.3568,-3.3582,-3.3581,-3.3651,-3.3597,-3.3597,-3.3597,-3.3597,0,-3.3113,-3.3155,-3.3188,-3.3219,-3.3266,-3.3285,-3.3331,-3.3351,-3.3382,-3.3416,-3.3424,-3.3455,-3.3477,-3.3511,-3.3524,-3.3571,-3.358,-3.3589,-3.3592,-3.3588,-3.3587,-3.36,-3.3597,-3.3599,-3.3598,-3.3598,-3.3598,0,-3.3152,-3.3177,-3.3232,-3.3274,-3.3285,-3.3318,-3.3353,-3.3382,-3.3401,-3.3444,-3.3455,-3.3484,-3.3525,-3.3545,-3.3596,-3.3605,-3.3657,-3.3658,-3.3645,-3.3646,-3.3671,-3.3668,-3.3752,-3.3764,-3.3703,-3.3703,-3.3704,0,-3.3186,-3.3218,-3.3264,-3.3288,-3.331,-3.3349,-3.3374,-3.3395,-3.3421,-3.3464,-3.3488,-3.353,-3.3564,-3.3628,-3.3653,-3.3691,-3.3693,-3.372,-3.3698,-3.3693,-3.3692,-3.3689,-3.3692,-3.3723,-3.3723,-3.3724,-3.3724,0,-3.3242,-3.3253,-3.329,-3.3332,-3.3363,-3.3396,-3.3429,-3.3448,-3.3474,-3.3503,-3.3546,-3.3572,-3.3625,-3.3665,-3.3706,-3.3726,-3.3729,-3.3731,-3.3739,-3.3734,-3.3725,-3.373,-3.3654,-3.3729,-3.3728,-3.3728,-3.3728,-3.3728,-3.3278,-3.3308,-3.3345,-3.3386,-3.3414,-3.3445,-3.3475,-3.3498,-3.3534,-3.3579,-3.3589,-3.3634,-3.3668,-3.3723,-3.3745,-3.3779,-3.3773,-3.3785,-3.3788,-3.379,-3.3791,-3.3721,-3.3787,-3.3787,-3.3787,-3.3787,-3.3787,0,-3.3334,-3.3359,-3.3397,-3.3444,-3.3476,-3.3479,-3.3516,-3.3542,-3.3582,-3.3614,-3.3648,-3.3697,-3.3737,-3.3765,-3.3806,-3.3828,-3.383,-3.3838,-3.3835,-3.384,-3.3795,-3.3783,-3.3835,-3.3835,-3.3835,-3.3835,-3.3835,-3.3835,-3.3367,-3.3417,-3.3432,-3.3495,-3.3519,-3.3564,-3.3585,-3.3613,-3.3639,-3.3694,-3.3728,-3.3747,-3.3777,-3.382,-3.3856,-3.3864,-3.3877,-3.3885,-3.3892,-3.3848,-3.3843,-3.3838,-3.3827,-3.3888,-3.3888,-3.3934,-3.3934,-3.3935]}]]